Date String (YYYY-MM-DD hh:mm:ss) UTC,Instrument flags,absolute air pressure of the measurement (hPa),sample flow rate (lpm),inlet stack bypass flow (lpm),air temperature of the measurement (°C),ambient temperature measured by the external sensor (°C),aerosol sample conditioner tube jacket temperature (°C),OPC LED temperature (°C),internal box temperature (°C),relative humidity of the measurement (%),span deviation,mass concentration of particles derived from Lorenz-Mie calculation of OPC scattering (μg/m³),mass concentration of particles derived from Lorenz-Mie calculation of OPC scattering (μg/m³),mass concentration of particles derived from Lorenz-Mie calculation of OPC scattering (μg/m³)
DateTimeUTC,F1_M11,P_M11,Q1_M11,Q2_M11,T1_M11,T2_M11,T3_M11,T4_M11,T5_M11,U1_M11,ZSPAN_M11,X0_M11,X2_M11,X1_M11
2023-10-08 09:00:00,SystemResetWarning,0834.2,4.99,000.00,028.4,026.9,000.0,036.9,030.0,13.0,0000.0,0005.67,0003.31,0003.01
2023-10-08 09:01:00,SystemResetWarning,0834.2,4.99,000.00,028.5,026.9,000.0,036.9,030.0,13.1,0000.0,0005.67,0003.30,0002.99
2023-10-08 09:02:00,SystemResetWarning,0834.2,5.01,000.00,028.5,026.9,000.0,036.9,030.0,13.1,0000.0,0005.74,0003.31,0002.98
2023-10-08 09:03:00,SystemResetWarning,0834.2,5.01,000.00,028.5,026.9,000.0,036.9,030.0,13.1,0000.0,0006.79,0003.32,0002.97
2023-10-08 09:04:00,SystemResetWarning,0834.2,5.00,000.00,028.4,026.9,000.0,036.9,030.0,13.1,0000.0,0006.82,0003.32,0002.94
2023-10-08 09:05:00,SystemResetWarning,0834.2,5.01,000.00,028.4,026.9,000.0,036.9,030.0,13.1,0000.0,0007.38,0003.31,0002.92
2023-10-08 09:06:00,SystemResetWarning,0834.2,5.00,000.00,028.4,026.9,000.0,036.9,030.0,13.1,0000.0,0007.69,0003.32,0002.90
2023-10-08 09:07:00,SystemResetWarning,0834.2,5.00,000.00,028.4,026.9,000.0,036.9,030.0,13.1,0000.0,0008.57,0003.33,0002.89
2023-10-08 09:08:00,SystemResetWarning,0834.1,4.99,000.00,028.4,026.9,000.0,036.9,030.0,13.1,0000.0,0008.75,0003.33,0002.88
2023-10-08 09:09:00,SystemResetWarning,0834.1,5.00,000.00,028.4,026.9,000.0,036.9,030.0,13.1,0000.0,0008.51,0003.29,0002.85
2023-10-08 09:10:00,SystemResetWarning,0834.2,5.00,000.00,028.4,026.9,000.0,036.9,030.0,13.1,0000.0,0008.46,0003.29,0002.85
2023-10-08 09:11:00,SystemResetWarning,0834.1,5.01,000.00,028.4,026.9,000.0,036.9,030.0,13.1,0000.0,0008.15,0003.26,0002.85
2023-10-08 09:12:00,SystemResetWarning,0834.1,5.00,000.00,028.4,026.9,000.0,036.9,030.0,13.1,0000.0,0008.18,0003.27,0002.83
2023-10-08 09:13:00,SystemResetWarning,0834.1,5.00,000.00,028.4,026.9,000.0,036.9,030.0,13.1,0000.0,0008.16,0003.27,0002.81
2023-10-08 09:14:00,SystemResetWarning,0834.1,5.01,000.00,028.4,026.9,000.0,036.9,030.0,13.1,0000.0,0007.68,0003.24,0002.80
2023-10-08 09:15:00,SystemResetWarning,0834.1,5.00,000.00,028.4,026.9,000.0,036.9,030.0,13.1,0000.0,0007.55,0003.23,0002.79
2023-10-08 09:16:00,SystemResetWarning,0834.1,4.99,000.00,028.4,026.8,000.0,036.9,030.0,13.1,0000.0,0006.96,0003.21,0002.77
2023-10-08 09:17:00,SystemResetWarning,0834.1,5.00,000.00,028.4,026.8,000.0,036.9,030.0,13.1,0000.0,0006.75,0003.19,0002.76
2023-10-08 09:18:00,SystemResetWarning,0834.1,5.00,000.00,028.4,026.8,000.0,036.9,030.0,13.1,0000.0,0005.52,0003.15,0002.75
2023-10-08 09:19:00,SystemResetWarning,0834.1,5.00,000.00,028.4,026.8,000.0,036.9,030.0,13.1,0000.0,0004.88,0003.15,0002.73
2023-10-08 09:20:00,SystemResetWarning,0834.1,5.00,000.00,028.4,026.8,000.0,036.9,030.0,13.1,0000.0,0005.04,0003.17,0002.72
2023-10-08 09:21:00,SystemResetWarning,0834.1,5.00,000.00,028.4,026.8,000.0,036.9,030.0,13.1,0000.0,0005.55,0003.17,0002.72
2023-10-08 09:22:00,SystemResetWarning,0834.1,5.00,000.00,028.4,026.8,000.0,036.9,030.0,13.1,0000.0,0006.15,0003.18,0002.72
2023-10-08 09:23:00,SystemResetWarning,0834.1,5.00,000.00,028.4,026.8,000.0,036.9,030.0,13.0,0000.0,0006.21,0003.15,0002.72
2023-10-08 09:24:00,SystemResetWarning,0834.1,5.01,000.00,028.4,026.8,000.0,036.9,030.0,13.1,0000.0,0006.34,0003.17,0002.72
2023-10-08 09:25:00,SystemResetWarning,0834.1,4.99,000.00,028.4,026.8,000.0,036.9,030.0,13.0,0000.0,0006.34,0003.17,0002.71
2023-10-08 09:26:00,SystemResetWarning,0834.1,5.00,000.00,028.4,026.8,000.0,036.9,030.0,13.1,0000.0,0006.24,0003.17,0002.71
2023-10-08 09:27:00,SystemResetWarning,0834.1,5.00,000.00,028.4,026.8,000.0,036.9,030.0,13.1,0000.0,0006.31,0003.19,0002.71
2023-10-08 09:28:00,SystemResetWarning,0834.1,5.00,000.00,028.4,026.8,000.0,036.8,030.0,13.1,0000.0,0006.08,0003.19,0002.72
2023-10-08 09:29:00,SystemResetWarning,0834.1,5.00,000.00,028.4,026.8,000.0,036.9,030.0,13.1,0000.0,0005.98,0003.20,0002.71
2023-10-08 09:30:00,SystemResetWarning,0834.2,5.00,000.00,028.4,026.8,000.0,036.8,030.0,13.1,0000.0,0005.87,0003.17,0002.69
2023-10-08 09:31:00,SystemResetWarning,0834.1,5.01,000.00,028.4,026.8,000.0,036.8,030.0,13.1,0000.0,0005.70,0003.14,0002.67
2023-10-08 09:32:00,SystemResetWarning,0834.1,5.01,000.00,028.4,026.8,000.0,036.8,030.0,13.1,0000.0,0005.45,0003.15,0002.67
2023-10-08 09:33:00,SystemResetWarning,0834.1,5.00,000.00,028.4,026.8,000.0,036.8,030.0,13.1,0000.0,0004.94,0003.15,0002.65
2023-10-08 09:34:00,SystemResetWarning,0834.1,5.00,000.00,028.4,026.8,000.0,036.8,030.0,13.1,0000.0,0004.59,0003.13,0002.64
2023-10-08 09:35:00,SystemResetWarning,0834.0,4.99,000.00,028.4,026.8,000.0,036.8,029.9,13.1,0000.0,0004.92,0003.10,0002.62
2023-10-08 09:36:00,SystemResetWarning,0834.0,4.99,000.00,028.4,026.8,000.0,036.8,030.0,13.1,0000.0,0004.99,0003.08,0002.61
2023-10-08 09:37:00,SystemResetWarning,0834.0,5.00,000.00,028.4,026.8,000.0,036.8,030.0,13.1,0000.0,0005.12,0003.07,0002.60
2023-10-08 09:38:00,SystemResetWarning,0834.0,5.00,000.00,028.4,026.8,000.0,036.8,030.0,13.1,0000.0,0005.12,0003.05,0002.59
2023-10-08 09:39:00,SystemResetWarning,0834.0,5.00,000.00,028.4,026.8,000.0,036.8,030.0,13.1,0000.0,0005.06,0003.02,0002.58
2023-10-08 09:40:00,SystemResetWarning,0834.0,5.00,000.00,028.4,026.8,000.0,036.8,030.0,13.1,0000.0,0005.01,0002.99,0002.56
2023-10-08 09:41:00,SystemResetWarning,0833.9,5.00,000.00,028.4,026.8,000.0,036.8,029.9,13.1,0000.0,0006.10,0003.03,0002.58
2023-10-08 09:42:00,SystemResetWarning,0833.9,5.00,000.00,028.4,026.8,000.0,036.8,029.9,13.1,0000.0,0006.75,0003.04,0002.58
2023-10-08 09:43:00,SystemResetWarning,0834.0,5.00,000.00,028.3,026.8,000.0,036.8,029.9,13.1,0000.0,0006.59,0002.98,0002.56
2023-10-08 09:44:00,SystemResetWarning,0834.0,5.00,000.00,028.3,026.8,000.0,036.8,029.9,13.1,0000.0,0006.89,0002.98,0002.58
2023-10-08 09:45:00,SystemResetWarning,0833.9,5.00,000.00,028.3,026.8,000.0,036.8,029.9,13.1,0000.0,0007.04,0003.00,0002.58
2023-10-08 09:46:00,SystemResetWarning,0834.0,4.99,000.00,028.3,026.8,000.0,036.8,029.9,13.1,0000.0,0007.39,0003.02,0002.58
2023-10-08 09:47:00,SystemResetWarning,0833.9,4.99,000.00,028.3,026.8,000.0,036.8,030.0,13.1,0000.0,0007.54,0003.03,0002.59
2023-10-08 09:48:00,SystemResetWarning,0833.9,5.00,000.00,028.3,026.8,000.0,036.8,029.9,13.1,0000.0,0007.50,0003.01,0002.59
2023-10-08 09:49:00,SystemResetWarning,0833.9,5.00,000.00,028.3,026.8,000.0,036.8,029.9,13.1,0000.0,0007.50,0003.00,0002.59
2023-10-08 09:50:00,SystemResetWarning,0833.9,5.00,000.00,028.3,026.8,000.0,036.8,029.9,13.2,0000.0,0007.60,0003.03,0002.60
2023-10-08 09:51:00,SystemResetWarning,0833.9,5.00,000.00,028.3,026.7,000.0,036.8,029.9,13.2,0000.0,0007.83,0003.06,0002.61
2023-10-08 09:52:00,SystemResetWarning,0833.8,5.00,000.00,028.3,026.7,000.0,036.8,029.9,13.2,0000.0,0007.47,0003.05,0002.60
2023-10-08 09:53:00,SystemResetWarning,0833.9,5.00,000.00,028.3,026.7,000.0,036.8,029.9,13.4,0000.0,0007.70,0003.04,0002.61
2023-10-08 09:54:00,SystemResetWarning,0833.9,5.00,000.00,028.3,026.7,000.0,036.8,029.9,13.4,0000.0,0008.30,0003.04,0002.61
2023-10-08 09:55:00,SystemResetWarning,0833.8,5.00,000.00,028.3,026.7,000.0,036.8,029.9,13.4,0000.0,0008.91,0003.01,0002.59
2023-10-08 09:56:00,SystemResetWarning,0833.8,4.99,000.00,028.3,026.7,000.0,036.8,029.9,13.4,0000.0,0009.05,0003.02,0002.59
2023-10-08 09:57:00,SystemResetWarning,0833.8,5.00,000.00,028.3,026.7,000.0,036.8,029.9,13.5,0000.0,0008.80,0003.03,0002.59
2023-10-08 09:58:00,SystemResetWarning,0833.8,5.00,000.00,028.3,026.7,000.0,036.8,029.9,13.5,0000.0,0008.69,0003.05,0002.60
2023-10-08 09:59:00,SystemResetWarning,0833.8,5.00,000.00,028.3,026.7,000.0,036.8,029.9,13.7,0000.0,0009.38,0003.07,0002.61
